When you browse on this site, cookies collect data to enhance your experience and personalize the content and advertising you see.
Visit our Privacy Policy to learn more. By continuing to use the site, you agree to this use of cookies and data.
  • In Lithuania
  • List of Countries
  • For 7 days
  • Water Temperature
  • Satellite Maps
  • Weather Map
  • Weather Widgets
  • user-avatar
    Login

    Hourly Weather Shlina

    Today, 26 May, Sunday

    Time Temperature Precipitation Wind Pressure Humidity
    00:00 +10°C° 0 mm 2 mps 735 mmHg 97%
    01:00 +10°C° 0 mm 2 mps 735 mmHg 97%
    02:00 +10°C° 0 mm 1 mps 735 mmHg 97%
    03:00 +9°C° 0 mm 2 mps 735 mmHg 95%
    04:00 +9°C° 0 mm 2 mps 735 mmHg 93%
    05:00 +10°C° 0 mm 2 mps 736 mmHg 91%
    06:00 +11°C° 0 mm 3 mps 736 mmHg 83%
    07:00 +12°C° 0 mm 3 mps 736 mmHg 76%
    08:00 +14°C° 0 mm 3 mps 736 mmHg 67%
    09:00 +14°C° 0 mm 3 mps 736 mmHg 63%
    10:00 +16°C° 0 mm 3 mps 736 mmHg 59%
    11:00 +17°C° 0 mm 3 mps 736 mmHg 55%
    12:00 +18°C° 0 mm 3 mps 736 mmHg 52%
    13:00 +18°C° 0 mm 3 mps 736 mmHg 49%
    14:00 +19°C° 0 mm 3 mps 736 mmHg 46%
    15:00 +18°C° 0 mm 3 mps 735 mmHg 48%
    16:00 +18°C° 0 mm 3 mps 735 mmHg 50%
    17:00 +18°C° 0 mm 3 mps 735 mmHg 52%
    18:00 +16°C° 0 mm 2 mps 735 mmHg 60%
    19:00 +15°C° 0 mm 2 mps 734 mmHg 69%
    20:00 +13°C° 0 mm 2 mps 734 mmHg 77%
    21:00 +13°C° 0 mm 2 mps 734 mmHg 80%
    22:00 +11°C° 0 mm 3 mps 734 mmHg 83%
    23:00 +11°C° 0 mm 3 mps 734 mmHg 86%

    Tomorrow, 27 May, Monday

    Time Temperature Precipitation Wind Pressure Humidity
    00:00 +10°C° 0.1 mm 3 mps 735 mmHg 87%
    01:00 +10°C° 0.1 mm 3 mps 735 mmHg 89%
    02:00 +9°C° 0.1 mm 3 mps 735 mmHg 90%
    03:00 +9°C° 0 mm 3 mps 735 mmHg 89%
    04:00 +8°C° 0 mm 4 mps 735 mmHg 87%
    05:00 +8°C° 0 mm 4 mps 735 mmHg 86%
    06:00 +9°C° 0 mm 5 mps 735 mmHg 80%
    07:00 +10°C° 0 mm 5 mps 735 mmHg 75%
    08:00 +12°C° 0 mm 5 mps 736 mmHg 70%
    09:00 +14°C° 0 mm 5 mps 736 mmHg 63%
    10:00 +15°C° 0 mm 5 mps 736 mmHg 56%
    11:00 +17°C° 0 mm 5 mps 736 mmHg 50%
    12:00 +17°C° 0 mm 5 mps 737 mmHg 49%
    13:00 +19°C° 0 mm 5 mps 737 mmHg 48%
    14:00 +19°C° 0 mm 4 mps 737 mmHg 47%
    15:00 +18°C° 0 mm 4 mps 737 mmHg 53%
    16:00 +18°C° 0 mm 4 mps 737 mmHg 60%
    17:00 +17°C° 0 mm 4 mps 737 mmHg 66%
    18:00 +15°C° 0 mm 4 mps 737 mmHg 73%
    19:00 +14°C° 0 mm 3 mps 738 mmHg 81%
    20:00 +13°C° 0 mm 3 mps 738 mmHg 88%
    21:00 +13°C° 0 mm 3 mps 738 mmHg 90%
    22:00 +13°C° 0 mm 3 mps 738 mmHg 92%
    23:00 +13°C° 0 mm 3 mps 738 mmHg 94%

    Day after tomorrow, 28 May, Tuesday

    Time Temperature Precipitation Wind Pressure Humidity
    00:00 +14°C° 0 mm 2 mps 738 mmHg 95%
    01:00 +13°C° 0 mm 2 mps 739 mmHg 96%
    02:00 +13°C° 0 mm 2 mps 739 mmHg 97%
    03:00 +13°C° 0 mm 2 mps 739 mmHg 96%
    04:00 +14°C° 0 mm 2 mps 740 mmHg 94%
    05:00 +13°C° 0 mm 3 mps 740 mmHg 93%
    06:00 +16°C° 0 mm 3 mps 740 mmHg 86%
    07:00 +17°C° 0 mm 2 mps 741 mmHg 79%
    08:00 +18°C° 0 mm 2 mps 741 mmHg 72%
    09:00 +20°C° 0.2 mm 3 mps 741 mmHg 69%
    10:00 +21°C° 0.2 mm 3 mps 741 mmHg 66%
    11:00 +22°C° 0.2 mm 3 mps 741 mmHg 64%
    12:00 +24°C° 0.2 mm 3 mps 741 mmHg 61%
    13:00 +25°C° 0.2 mm 3 mps 741 mmHg 58%
    14:00 +25°C° 0.2 mm 3 mps 741 mmHg 55%
    15:00 +24°C° 0.9 mm 3 mps 741 mmHg 66%
    16:00 +21°C° 0.9 mm 2 mps 740 mmHg 77%
    17:00 +20°C° 0.9 mm 1 mps 740 mmHg 88%
    18:00 +19°C° 0.9 mm 2 mps 740 mmHg 90%
    19:00 +19°C° 0.9 mm 2 mps 740 mmHg 92%
    20:00 +18°C° 0.9 mm 3 mps 740 mmHg 94%
    21:00 +18°C° 0.1 mm 3 mps 740 mmHg 94%
    22:00 +18°C° 0.1 mm 3 mps 740 mmHg 93%
    23:00 +18°C° 0.1 mm 4 mps 740 mmHg 93%

    29 May, Wednesday

    Time Temperature Precipitation Wind Pressure Humidity
    00:00 +18°C° 0 mm 4 mps 740 mmHg 93%
    01:00 +18°C° 0 mm 3 mps 740 mmHg 93%
    02:00 +17°C° 0 mm 3 mps 740 mmHg 93%
    03:00 +18°C° 0.1 mm 3 mps 740 mmHg 93%
    04:00 +18°C° 0.1 mm 4 mps 741 mmHg 92%
    05:00 +18°C° 0.1 mm 4 mps 741 mmHg 92%
    06:00 +19°C° 0 mm 4 mps 741 mmHg 86%
    07:00 +21°C° 0 mm 4 mps 741 mmHg 79%
    08:00 +22°C° 0 mm 4 mps 741 mmHg 73%
    09:00 +25°C° 0 mm 5 mps 741 mmHg 64%
    10:00 +26°C° 0 mm 5 mps 741 mmHg 56%
    11:00 +28°C° 0 mm 5 mps 741 mmHg 47%
    12:00 +28°C° 0 mm 6 mps 741 mmHg 45%
    13:00 +29°C° 0 mm 6 mps 741 mmHg 43%
    14:00 +29°C° 0 mm 6 mps 741 mmHg 41%
    15:00 +29°C° 0 mm 5 mps 741 mmHg 43%
    16:00 +28°C° 0 mm 5 mps 741 mmHg 45%
    17:00 +28°C° 0 mm 4 mps 741 mmHg 48%
    18:00 +26°C° 0 mm 4 mps 741 mmHg 54%
    19:00 +24°C° 0 mm 3 mps 741 mmHg 61%
    20:00 +21°C° 0 mm 3 mps 741 mmHg 67%
    21:00 +20°C° 0 mm 3 mps 741 mmHg 71%
    22:00 +20°C° 0 mm 3 mps 741 mmHg 74%
    23:00 +19°C° 0 mm 3 mps 742 mmHg 78%

    30 May, Thursday

    Time Temperature Precipitation Wind Pressure Humidity
    00:00 +19°C° 0 mm 3 mps 741 mmHg 79%
    01:00 +19°C° 0 mm 3 mps 741 mmHg 80%
    02:00 +19°C° 0 mm 4 mps 741 mmHg 81%
    03:00 +19°C° 0 mm 4 mps 741 mmHg 82%
    04:00 +19°C° 0 mm 4 mps 741 mmHg 82%
    05:00 +19°C° 0 mm 4 mps 742 mmHg 83%
    06:00 +20°C° 0.2 mm 4 mps 742 mmHg 80%
    07:00 +21°C° 0.2 mm 5 mps 742 mmHg 78%
    08:00 +22°C° 0.2 mm 5 mps 742 mmHg 76%
    09:00 +21°C° 0.5 mm 4 mps 743 mmHg 78%
    10:00 +21°C° 0.5 mm 4 mps 743 mmHg 80%
    11:00 +20°C° 0.5 mm 3 mps 743 mmHg 83%
    12:00 +20°C° 0.1 mm 3 mps 744 mmHg 79%
    13:00 +20°C° 0.1 mm 3 mps 744 mmHg 74%
    14:00 +19°C° 0.1 mm 3 mps 744 mmHg 70%
    15:00 +19°C° 0 mm 3 mps 745 mmHg 68%
    16:00 +20°C° 0 mm 3 mps 745 mmHg 66%
    17:00 +20°C° 0 mm 2 mps 745 mmHg 64%
    18:00 +18°C° 0 mm 2 mps 745 mmHg 68%
    19:00 +17°C° 0 mm 2 mps 746 mmHg 72%
    20:00 +16°C° 0 mm 1 mps 746 mmHg 77%
    21:00 +15°C° 0 mm 1 mps 746 mmHg 78%
    22:00 +14°C° 0 mm 1 mps 746 mmHg 80%
    23:00 +13°C° 0 mm 1 mps 746 mmHg 81%

    31 May, Friday

    Time Temperature Precipitation Wind Pressure Humidity
    00:00 +12°C° 0 mm 2 mps 747 mmHg 79%
    01:00 +10°C° 0 mm 2 mps 747 mmHg 78%
    02:00 +10°C° 0 mm 2 mps 747 mmHg 76%
    03:00 +10°C° 0 mm 2 mps 747 mmHg 75%
    04:00 +12°C° 0 mm 2 mps 746 mmHg 73%
    05:00 +12°C° 0 mm 2 mps 746 mmHg 72%
    06:00 +14°C° 0 mm 2 mps 746 mmHg 71%
    07:00 +16°C° 0 mm 2 mps 746 mmHg 69%
    08:00 +17°C° 0 mm 2 mps 746 mmHg 67%
    09:00 +19°C° 0 mm 2 mps 745 mmHg 63%
    10:00 +21°C° 0 mm 2 mps 745 mmHg 59%
    11:00 +24°C° 0 mm 2 mps 744 mmHg 55%
    12:00 +24°C° 0.1 mm 2 mps 744 mmHg 59%
    13:00 +24°C° 0.1 mm 1 mps 744 mmHg 64%
    14:00 +23°C° 0.1 mm 1 mps 743 mmHg 68%
    15:00 +23°C° 0.7 mm 1 mps 743 mmHg 72%
    16:00 +23°C° 0.7 mm 1 mps 743 mmHg 76%
    17:00 +23°C° 0.7 mm 1 mps 742 mmHg 81%
    18:00 +22°C° 0.2 mm 1 mps 742 mmHg 85%
    19:00 +21°C° 0.2 mm 1 mps 742 mmHg 89%
    20:00 +19°C° 0.2 mm 1 mps 742 mmHg 93%
    21:00 +19°C° 0.1 mm 1 mps 742 mmHg 94%
    22:00 +18°C° 0.1 mm 1 mps 742 mmHg 95%
    23:00 +18°C° 0.1 mm 1 mps 742 mmHg 95%
    Show more